Location: Homewood
(41.1836°S, 175.9581°E)
Time: 03:02:13
(UTC+00:00)

Cosmos 1703 Rocket - Pass Details

Date: 18 April 2024
Orbit: 603 x 628 km, 82.5° (Epoch: 22 May)

Event Time Altitude Azimuth Distance (km) Brightness Sun altitude
Rises 16:55:37 0° 184° (S) 2,939 7.1 -22.3°
Reaches altitude 10° 16:57:56 10° 179° (S) 2,020 6.2 -21.9°
Maximum altitude 17:02:19 54° 101° (E) 764 4.3 -21.0°
Drops below altitude 10° 17:06:37 10° 23° (NNE) 1,975 6.4 -20.2°
Sets 17:08:51 0° 18° (NNE) 2,867 7.2 -19.8°
